Shawbury, United Kingdom

4:59 PM BST on June 27, 2017 (GMT +0100)
Shawbury Air Base

Weather History for EGOS - October, 2013

Change the Weather History Date:

Monday, October 14, 2013

  Actual Average Record
Temperature  
Mean Temperature 50 °F -  
Max Temperature 54 °F 51 °F 62 °F (1996)
Min Temperature 46 °F 40 °F 28 °F (2012)
Degree Days  
Heating Degree Days 15    
Moisture  
Dew Point 46 °F    
Average Humidity 87    
Maximum Humidity 100    
Minimum Humidity 76    
Precipitation  
Precipitation 0.04 in - - ()
Sea Level Pressure  
Sea Level Pressure 29.78 in    
Wind  
Wind Speed 11 mph ()    
Max Wind Speed 17 mph    
Max Gust Speed 25 mph    
Visibility 7.1 miles    
Events Rain    
Averages and records for this station are not official NWS values.
T = Trace of Precipitation, MM = Missing Value Source: Averaged Metar Reports

Daily Weather History Graph

Daily Weather History Graph

Search for Another Location

Airport or City:

Trip Planner

Search our weather history database for the weather conditions in past years. The results will help you decide how hot, cold, wet, or windy it might be!

Date:

Astronomy

Oct. 14, 2013 Rise Set
Actual Time 7:34 AM BST 6:17 PM BST
Civil Twilight 7:00 AM BST 6:52 PM BST
Nautical Twilight 6:20 AM BST 7:31 PM BST
Astronomical Twilight 5:40 AM BST 8:11 PM BST
Moon 4:09 PM BST (10/14) 1:58 AM BST (10/14)
Length of Visible Light 11h 51m
Length of Day
10h 42m
Waxing Gibbous, 77% of the Moon is Illuminated
Oct 14
Waxing Gibbous
Oct 19
Full
Oct 27
Last Quarter
Nov 3
New
Nov 10
First Quarter

Hourly Weather History & Observations

Time (BST) Temp. Windchill Dew Point Humidity Pressure Visibility Wind Dir Wind Speed Gust Speed Precip Events Conditions
12:50 AM 49 °F - 44 °F 76% 29.84 in 10 mi NW 10.4 mph - - Rain Light Rain Showers
12:50 AM 48.2 °F - 44.6 °F 87% 29.83 in 6.2 mi NW 10.4 mph - N/A Rain Light Rain Showers
1:50 AM 50.0 °F - 42.8 °F 76% 29.83 in 6.2 mi NNW 17.3 mph - N/A   Mostly Cloudy
2:50 AM 48.2 °F - 44.6 °F 87% 29.80 in 6.2 mi NNW 15.0 mph - N/A Rain Light Rain Showers
3:50 AM 48 °F - 44 °F 81% 29.81 in 11 mi NNW 12.7 mph - - Rain Rain
3:50 AM 48.2 °F - 44.6 °F 87% 29.80 in 6.2 mi NNW 12.7 mph - N/A   Mostly Cloudy
4:50 AM 48.2 °F - 44.6 °F 87% 29.77 in 6.2 mi NNW 13.8 mph - N/A Rain Light Rain
5:50 AM 48.2 °F - 44.6 °F 87% 29.77 in 5.6 mi NNW 15.0 mph - N/A Rain Light Rain Showers
6:50 AM 47 °F - 45 °F 91% 29.78 in 16 mi NW 13.8 mph - - Rain Light Rain
6:50 AM 48.2 °F - 44.6 °F 87% 29.77 in 6.2 mi NW 13.8 mph - N/A   Overcast
7:50 AM 48.2 °F - 44.6 °F 87% 29.77 in 6.2 mi NNW 15.0 mph - N/A   Mostly Cloudy
8:50 AM 48.2 °F - 44.6 °F 87% 29.77 in 6.2 mi NNW 12.7 mph - N/A   Mostly Cloudy
9:13 AM 48.2 °F - 46.4 °F 93% 29.77 in 6.2 mi NW 12.7 mph - N/A Rain Light Rain
9:50 AM 48 °F - 46 °F 89% 29.79 in 6 mi NNW 10.4 mph - - Rain Light Rain
9:50 AM 48.2 °F - 46.4 °F 93% 29.77 in 5.6 mi NNW 10.4 mph - N/A Rain Light Rain
10:26 AM 50.0 °F - 46.4 °F 87% 29.77 in 6.2 mi NW 12.7 mph - N/A   Mostly Cloudy
10:50 AM 50.0 °F - 46.4 °F 87% 29.77 in 6.2 mi NNW 13.8 mph - N/A Rain Light Rain
11:50 AM 50.0 °F - 46.4 °F 87% 29.77 in 6.2 mi NNW 13.8 mph - N/A   Mostly Cloudy
12:50 PM 51 °F - 48 °F 84% 29.77 in 12 mi NNW 12.7 mph - - Rain Light Rain Showers
12:50 PM 51.8 °F - 48.2 °F 88% 29.74 in 6.2 mi NNW 12.7 mph - N/A Rain Light Rain Showers
1:50 PM 51.8 °F - 48.2 °F 88% 29.74 in 6.2 mi NNW 15.0 mph - N/A   Mostly Cloudy
2:30 PM 53.6 °F - 48.2 °F 82% 29.74 in 6.2 mi NNW 12.7 mph - N/A   Mostly Cloudy
2:50 PM 53.6 °F - 46.4 °F 77% 29.74 in 6.2 mi NNW 13.8 mph 25.3 mph N/A   Mostly Cloudy
3:31 PM 53.6 °F - 48.2 °F 82% 29.74 in 6.2 mi NNW 12.7 mph - N/A Rain Light Rain Showers
3:50 PM 52 °F - 47 °F 76% 29.76 in 12 mi North 15.0 mph - - Rain Light Rain Showers
3:50 PM 51.8 °F - 46.4 °F 82% 29.74 in 6.2 mi North 15.0 mph - N/A Rain Light Rain Showers
4:50 PM 51.8 °F - 48.2 °F 88% 29.74 in 6.2 mi NNW 11.5 mph - N/A Rain Light Rain Showers
5:50 PM 50.0 °F - 46.4 °F 87% 29.74 in 6.2 mi NNW 6.9 mph - N/A   Mostly Cloudy
6:50 PM 50 °F - 47 °F 88% 29.78 in 9 mi NNW 9.2 mph - - Rain Rain
6:50 PM 50.0 °F - 48.2 °F 94% 29.77 in 6.2 mi NNW 9.2 mph - N/A   Mostly Cloudy
7:50 PM 46.4 °F 42.9 °F 46.4 °F 100% 29.77 in 5.6 mi North 6.9 mph - N/A   Partly Cloudy
8:50 PM 46.4 °F 41.5 °F 44.6 °F 93% 29.77 in 6.2 mi NW 10.4 mph - N/A   Partly Cloudy
9:50 PM 47 °F - 46 °F 95% 29.81 in 7 mi NNW 8.1 mph - -   Mostly Cloudy
9:50 PM 48.2 °F - 46.4 °F 93% 29.80 in 6.2 mi NNW 8.1 mph - N/A   Mostly Cloudy
10:50 PM 48.2 °F - 46.4 °F 93% 29.80 in 5.0 mi NW 8.1 mph - N/A   Scattered Clouds
11:50 PM 46.4 °F 41.9 °F 46.4 °F 100% 29.80 in - NW 9.2 mph - N/A   Scattered Clouds